TimeCST,TemperatureF,Dew PointF,Humidity,Sea Level PressureIn,VisibilityMPH,Wind Direction,Wind SpeedMPH,Gust SpeedMPH,PrecipitationIn,Events,Conditions,WindDirDegrees,DateUTC
12:53 AM,-2.9,-11.9,65,30.33,9.0,NW,5.8,-,N/A,,Mostly Cloudy,320,2013-01-22 06:53:00
1:38 AM,-4.0,-11.2,71,30.27,10.0,NNW,3.5,-,0.00,,Scattered Clouds,340,2013-01-22 07:38:00
1:53 AM,-4.0,-11.9,69,30.35,10.0,NNW,5.8,-,0.00,,Partly Cloudy,330,2013-01-22 07:53:00
2:53 AM,-6.0,-11.0,79,30.37,9.0,NNW,4.6,-,0.00,Snow,Light Snow,340,2013-01-22 08:53:00
3:53 AM,-6.0,-11.9,75,30.37,10.0,NNW,3.5,-,0.00,,Partly Cloudy,330,2013-01-22 09:53:00
4:53 AM,-7.1,-11.9,79,30.36,10.0,Calm,Calm,-,N/A,,Clear,0,2013-01-22 10:53:00
5:53 AM,-7.1,-13.0,75,30.37,10.0,Calm,Calm,-,N/A,,Clear,0,2013-01-22 11:53:00
6:53 AM,-5.1,-14.1,65,30.38,10.0,WNW,5.8,-,N/A,,Clear,300,2013-01-22 12:53:00
7:53 AM,-4.0,-13.0,65,30.39,10.0,WNW,6.9,-,N/A,,Clear,300,2013-01-22 13:53:00
8:53 AM,-2.9,-11.0,68,30.40,10.0,West,8.1,-,N/A,,Partly Cloudy,280,2013-01-22 14:53:00
9:53 AM,-0.0,-9.9,63,30.40,10.0,Variable,5.8,-,N/A,,Partly Cloudy,0,2013-01-22 15:53:00
10:53 AM,1.0,-11.0,57,30.41,10.0,Variable,5.8,-,N/A,,Partly Cloudy,0,2013-01-22 16:53:00
11:53 AM,3.0,-9.0,57,30.40,10.0,West,8.1,-,N/A,,Scattered Clouds,280,2013-01-22 17:53:00
12:53 PM,3.9,-9.0,55,30.37,10.0,WNW,9.2,-,N/A,,Partly Cloudy,290,2013-01-22 18:53:00
1:53 PM,7.0,-7.1,53,30.36,10.0,WNW,9.2,-,N/A,,Scattered Clouds,300,2013-01-22 19:53:00
2:53 PM,7.0,-7.1,53,30.38,10.0,Variable,5.8,-,N/A,,Scattered Clouds,0,2013-01-22 20:53:00
3:53 PM,8.1,-7.1,50,30.37,10.0,West,9.2,17.3,N/A,,Scattered Clouds,280,2013-01-22 21:53:00
4:53 PM,7.0,-7.1,53,30.36,10.0,WNW,5.8,-,N/A,,Partly Cloudy,300,2013-01-22 22:53:00
5:53 PM,7.0,-6.0,55,30.36,10.0,WNW,6.9,-,N/A,,Clear,290,2013-01-22 23:53:00
6:53 PM,7.0,-6.0,55,30.37,10.0,WNW,4.6,-,N/A,,Clear,290,2013-01-23 00:53:00
7:53 PM,7.0,-6.0,55,30.36,10.0,WNW,6.9,-,N/A,,Clear,300,2013-01-23 01:53:00
8:53 PM,6.1,-7.1,55,30.36,10.0,WNW,5.8,-,N/A,,Clear,290,2013-01-23 02:53:00
9:53 PM,6.1,-6.0,58,30.37,10.0,Calm,Calm,-,N/A,,Clear,0,2013-01-23 03:53:00
10:53 PM,5.0,-5.1,63,30.37,10.0,Calm,Calm,-,N/A,,Clear,0,2013-01-23 04:53:00
11:53 PM,7.0,-4.0,61,30.35,10.0,Calm,Calm,-,N/A,,Overcast,0,2013-01-23 05:53:00